{"data":{"norad_id":49271,"epoch":"2026-05-25T04:38:12.011712Z","epoch_age_seconds":54779,"freshness":"FRESH","line1":"1 49271U 11037PF  26145.19319458  .00018424  00000+0  29625-1 0  9996","line2":"2 49271  51.6266  70.9853 0920424 232.4706 118.9015 12.41680895222193","mean_motion":12.41680895,"eccentricity":0.0920424,"inclination_deg":51.6266,"raan_deg":70.9853,"arg_perigee_deg":232.4706,"mean_anomaly_deg":118.9015,"bstar":0.029625,"rev_number":22219,"period_min":115.97182543426,"perigee_km":774.41038382151,"apogee_km":2224.5609796657,"semimajor_km":7877.6226817436,"source":"CELESTRAK","updated_at":"2026-05-25T13:38:08.445002Z"}}